• In Lithuania
  • List of Countries
  • For 7 days
  • Water Temperature
  • Satellite Maps
  • Weather Map
  • Weather Widgets
  • user-avatar
    Login

    Hourly Weather Kamarang

    Today, 25 September, Tuesday

    Time Temperature Precipitation Wind Pressure Humidity
    00:00 +20°C° 0.3 mm 0 mps 712 mmHg 96%
    01:00 +20°C° 0.3 mm 0 mps 712 mmHg 97%
    02:00 +20°C° 0 mm 0 mps 712 mmHg 97%
    03:00 +19°C° 0 mm 0 mps 712 mmHg 97%
    04:00 +19°C° 0 mm 0 mps 712 mmHg 97%
    05:00 +19°C° 0 mm 0 mps 712 mmHg 97%
    06:00 +21°C° 0 mm 0 mps 712 mmHg 92%
    07:00 +22°C° 0 mm 0 mps 713 mmHg 86%
    08:00 +24°C° 0 mm 0 mps 713 mmHg 80%
    09:00 +26°C° 0 mm 0 mps 713 mmHg 67%
    10:00 +31°C° 0 mm 1 mps 713 mmHg 55%
    11:00 +34°C° 0 mm 1 mps 713 mmHg 42%
    12:00 +34°C° 0 mm 1 mps 713 mmHg 41%
    13:00 +35°C° 0 mm 1 mps 712 mmHg 39%
    14:00 +36°C° 0 mm 2 mps 711 mmHg 38%
    15:00 +35°C° 0 mm 2 mps 711 mmHg 43%
    16:00 +32°C° 0 mm 2 mps 711 mmHg 49%
    17:00 +31°C° 0 mm 1 mps 710 mmHg 55%
    18:00 +29°C° 1.7 mm 1 mps 711 mmHg 67%
    19:00 +26°C° 1.7 mm 1 mps 711 mmHg 79%
    20:00 +24°C° 1.7 mm 1 mps 711 mmHg 92%
    21:00 +22°C° 1 mm 0 mps 712 mmHg 93%
    22:00 +21°C° 1 mm 0 mps 712 mmHg 95%
    23:00 +21°C° 1 mm 0 mps 712 mmHg 97%

    Tomorrow, 26 September, Wednesday

    Time Temperature Precipitation Wind Pressure Humidity
    00:00 +21°C° 0.1 mm 0 mps 712 mmHg 97%
    01:00 +21°C° 0.1 mm 0 mps 711 mmHg 97%
    02:00 +21°C° 0.1 mm 0 mps 711 mmHg 98%
    03:00 +20°C° 0 mm 0 mps 711 mmHg 98%
    04:00 +20°C° 0 mm 0 mps 710 mmHg 98%
    05:00 +20°C° 0 mm 0 mps 710 mmHg 98%
    06:00 +22°C° 0 mm 0 mps 711 mmHg 93%
    07:00 +23°C° 0 mm 0 mps 711 mmHg 88%
    08:00 +24°C° 0 mm 0 mps 712 mmHg 83%
    09:00 +27°C° 0.5 mm 0 mps 712 mmHg 75%
    10:00 +29°C° 0.5 mm 0 mps 712 mmHg 67%
    11:00 +31°C° 0.5 mm 0 mps 713 mmHg 59%
    12:00 +33°C° 0.7 mm 1 mps 712 mmHg 60%
    13:00 +32°C° 0.7 mm 1 mps 711 mmHg 60%
    14:00 +32°C° 0.7 mm 1 mps 710 mmHg 61%
    15:00 +30°C° 1.9 mm 1 mps 709 mmHg 71%
    16:00 +28°C° 1.9 mm 1 mps 709 mmHg 81%
    17:00 +26°C° 1.9 mm 1 mps 709 mmHg 92%
    18:00 +25°C° 2.1 mm 1 mps 710 mmHg 93%
    19:00 +25°C° 2.1 mm 1 mps 710 mmHg 95%
    20:00 +22°C° 2.1 mm 0 mps 711 mmHg 97%
    21:00 +22°C° 1.1 mm 0 mps 711 mmHg 97%
    22:00 +22°C° 1.1 mm 0 mps 711 mmHg 97%
    23:00 +21°C° 1.1 mm 0 mps 712 mmHg 97%

    Day after tomorrow, 27 September, Thursday

    Time Temperature Precipitation Wind Pressure Humidity
    00:00 +21°C° 1.2 mm 0 mps 711 mmHg 97%
    01:00 +21°C° 1.2 mm 0 mps 711 mmHg 97%
    02:00 +21°C° 1.2 mm 0 mps 710 mmHg 97%
    03:00 +21°C° 0.8 mm 0 mps 710 mmHg 97%
    04:00 +21°C° 0.8 mm 0 mps 710 mmHg 97%
    05:00 +21°C° 0.8 mm 0 mps 710 mmHg 97%
    06:00 +22°C° 0.1 mm 0 mps 711 mmHg 94%
    07:00 +23°C° 0.1 mm 0 mps 712 mmHg 91%
    08:00 +24°C° 0.1 mm 0 mps 712 mmHg 88%
    09:00 +26°C° 0.4 mm 0 mps 712 mmHg 78%
    10:00 +30°C° 0.4 mm 1 mps 713 mmHg 68%
    11:00 +32°C° 0.4 mm 1 mps 713 mmHg 58%
    12:00 +32°C° 0.7 mm 1 mps 712 mmHg 60%
    13:00 +32°C° 0.7 mm 1 mps 711 mmHg 63%
    14:00 +31°C° 0.7 mm 1 mps 710 mmHg 65%
    15:00 +30°C° 2.1 mm 1 mps 710 mmHg 73%
    16:00 +29°C° 2.1 mm 1 mps 710 mmHg 82%
    17:00 +27°C° 2.1 mm 1 mps 709 mmHg 91%
    18:00 +26°C° 1.4 mm 1 mps 710 mmHg 92%
    19:00 +25°C° 1.4 mm 1 mps 711 mmHg 94%
    20:00 +24°C° 1.4 mm 1 mps 712 mmHg 95%
    21:00 +22°C° 1 mm 0 mps 712 mmHg 96%
    22:00 +22°C° 1 mm 0 mps 712 mmHg 96%
    23:00 +21°C° 1 mm 0 mps 712 mmHg 97%

    28 September, Friday

    Time Temperature Precipitation Wind Pressure Humidity
    00:00 +21°C° 0.8 mm 0 mps 712 mmHg 97%
    01:00 +21°C° 0.8 mm 0 mps 711 mmHg 97%
    02:00 +21°C° 0.8 mm 0 mps 711 mmHg 97%
    03:00 +21°C° 0 mm 0 mps 711 mmHg 97%
    04:00 +21°C° 0 mm 0 mps 711 mmHg 97%
    05:00 +20°C° 0 mm 0 mps 711 mmHg 97%
    06:00 +22°C° 0 mm 0 mps 712 mmHg 93%
    07:00 +23°C° 0 mm 0 mps 712 mmHg 89%
    08:00 +26°C° 0 mm 1 mps 713 mmHg 85%
    09:00 +28°C° 0 mm 1 mps 713 mmHg 74%
    10:00 +30°C° 0 mm 1 mps 713 mmHg 63%
    11:00 +32°C° 0 mm 2 mps 713 mmHg 51%
    12:00 +32°C° 0.2 mm 2 mps 712 mmHg 54%
    13:00 +32°C° 0.2 mm 2 mps 711 mmHg 56%
    14:00 +32°C° 0.2 mm 2 mps 710 mmHg 58%
    15:00 +31°C° 0.8 mm 2 mps 710 mmHg 65%
    16:00 +29°C° 0.8 mm 1 mps 710 mmHg 73%
    17:00 +28°C° 0.8 mm 1 mps 710 mmHg 81%
    18:00 +27°C° 1.3 mm 1 mps 710 mmHg 85%
    19:00 +25°C° 1.3 mm 1 mps 711 mmHg 90%
    20:00 +24°C° 1.3 mm 1 mps 712 mmHg 95%
    21:00 +24°C° 0.4 mm 1 mps 712 mmHg 96%
    22:00 +21°C° 0.4 mm 0 mps 712 mmHg 97%
    23:00 +21°C° 0.4 mm 0 mps 712 mmHg 97%

    29 September, Saturday

    Time Temperature Precipitation Wind Pressure Humidity
    00:00 +21°C° 0.1 mm 0 mps 712 mmHg 98%
    01:00 +20°C° 0.1 mm 0 mps 711 mmHg 98%
    02:00 +20°C° 0.1 mm 0 mps 710 mmHg 98%
    03:00 +20°C° 0 mm 0 mps 710 mmHg 98%
    04:00 +20°C° 0 mm 0 mps 711 mmHg 98%
    05:00 +20°C° 0 mm 0 mps 711 mmHg 98%
    06:00 +21°C° 0 mm 0 mps 711 mmHg 94%
    07:00 +22°C° 0 mm 0 mps 712 mmHg 90%
    08:00 +23°C° 0 mm 0 mps 713 mmHg 86%
    09:00 +28°C° 0 mm 1 mps 713 mmHg 74%
    10:00 +30°C° 0 mm 1 mps 713 mmHg 62%
    11:00 +33°C° 0 mm 1 mps 713 mmHg 49%
    12:00 +33°C° 0.1 mm 1 mps 712 mmHg 49%
    13:00 +33°C° 0.1 mm 1 mps 711 mmHg 49%
    14:00 +34°C° 0.1 mm 2 mps 710 mmHg 49%
    15:00 +31°C° 0.7 mm 1 mps 710 mmHg 60%
    16:00 +29°C° 0.7 mm 1 mps 710 mmHg 71%
    17:00 +27°C° 0.7 mm 1 mps 710 mmHg 82%
    18:00 +26°C° 2.2 mm 1 mps 710 mmHg 87%
    19:00 +25°C° 2.2 mm 1 mps 711 mmHg 91%
    20:00 +24°C° 2.2 mm 1 mps 711 mmHg 96%
    21:00 +24°C° 1.2 mm 1 mps 712 mmHg 97%
    22:00 +22°C° 1.2 mm 0 mps 712 mmHg 97%
    23:00 +21°C° 1.2 mm 0 mps 712 mmHg 98%

    30 September, Sunday

    Time Temperature Precipitation Wind Pressure Humidity
    00:00 +21°C° 0.9 mm 0 mps 711 mmHg 98%
    01:00 +21°C° 0.9 mm 0 mps 711 mmHg 98%
    02:00 +21°C° 0.9 mm 0 mps 710 mmHg 98%
    03:00 +21°C° 0.1 mm 0 mps 710 mmHg 98%
    04:00 +21°C° 0.1 mm 0 mps 711 mmHg 98%
    05:00 +21°C° 0.1 mm 0 mps 711 mmHg 98%
    06:00 +22°C° 0 mm 0 mps 711 mmHg 95%
    07:00 +22°C° 0 mm 0 mps 712 mmHg 92%
    08:00 +23°C° 0 mm 0 mps 713 mmHg 89%
    09:00 +27°C° 0 mm 1 mps 713 mmHg 78%
    10:00 +29°C° 0 mm 1 mps 713 mmHg 67%
    11:00 +32°C° 0 mm 1 mps 713 mmHg 56%
    12:00 +32°C° 0.1 mm 1 mps 712 mmHg 54%
    13:00 +34°C° 0.1 mm 2 mps 711 mmHg 52%
    14:00 +34°C° 0.1 mm 2 mps 710 mmHg 51%
    15:00 +32°C° 0.3 mm 2 mps 710 mmHg 57%
    16:00 +31°C° 0.3 mm 1 mps 710 mmHg 62%
    17:00 +30°C° 0.3 mm 1 mps 710 mmHg 68%
    18:00 +28°C° 0.4 mm 1 mps 710 mmHg 76%
    19:00 +26°C° 0.4 mm 1 mps 711 mmHg 83%
    20:00 +25°C° 0.4 mm 1 mps 711 mmHg 91%
    21:00 +24°C° 0.2 mm 1 mps 712 mmHg 93%
    22:00 +24°C° 0.2 mm 1 mps 712 mmHg 95%
    23:00 +22°C° 0.2 mm 0 mps 712 mmHg 97%
    Show more